| time (UTC) | temp F | wind direction | speed MPH | gust MPH | rain 1hr in | rain 24hr in | rain mn in | humidity % | barometer mb |
| 20260506015805 | 50 | 22 | 1.0 | 3.0 | 0.00 | 0.00 | 0.00 | 85 | 1013.0 |
| 20260506001805 | 52 | 357 | 0.0 | 3.0 | 0.00 | 0.00 | 0.00 | 80 | 1011.0 |
| 20260505234804 | 52 | 0 | 0.0 | 3.0 | 0.00 | 0.00 | 0.00 | 80 | 1012.0 |
| 20260505232805 | 53 | 334 | 1.0 | 3.0 | 0.00 | 0.00 | 0.00 | 79 | 1013.0 |
| 20260505225805 | 53 | 45 | 0.0 | 2.0 | 0.00 | 0.00 | 0.00 | 77 | 1013.0 |
| 20260505222805 | 53 | 22 | 1.0 | 2.0 | 0.00 | 0.00 | 0.00 | 75 | 1012.0 |
| 20260505221805 | 54 | 0 | 0.0 | 3.0 | 0.00 | 0.00 | 0.00 | 74 | 1012.0 |
| 20260505220805 | 54 | 22 | 0.0 | 3.0 | 0.00 | 0.00 | 0.00 | 73 | 1013.0 |
| 20260505213805 | 54 | 0 | 1.0 | 3.0 | 0.00 | 0.00 | 0.00 | 72 | 1012.0 |
| 20260505212805 | 55 | 22 | 0.0 | 3.0 | 0.00 | 0.00 | 0.00 | 72 | 1013.0 |
| 20260505210805 | 55 | 45 | 0.0 | 2.0 | 0.00 | 0.00 | 0.00 | 72 | 1012.0 |
| 20260505205804 | 55 | 0 | 0.0 | 2.0 | 0.00 | 0.00 | 0.00 | 72 | 1012.0 |
| 20260505202805 | 55 | 0 | 0.0 | 2.0 | 0.00 | 0.00 | 0.00 | 71 | 1012.0 |
| 20260505201805 | 55 | 0 | 1.0 | 3.0 | 0.00 | 0.00 | 0.00 | 71 | 1012.0 |
| 20260505194804 | 56 | 0 | 0.0 | 2.0 | 0.00 | 0.00 | 0.00 | 71 | 1012.0 |
| 20260505193804 | 56 | 0 | 0.0 | 2.0 | 0.00 | 0.01 | 0.00 | 70 | 1012.0 |
| 20260505192805 | 56 | 0 | 0.0 | 2.0 | 0.00 | 0.03 | 0.00 | 70 | 1011.0 |
| 20260505183805 | 57 | 0 | 1.0 | 3.0 | 0.00 | 0.09 | 0.00 | 69 | 1011.0 |
| 20260505182805 | 58 | 0 | 0.0 | 2.0 | 0.00 | 0.09 | 0.00 | 70 | 1011.0 |
| 20260505181805 | 58 | 0 | 1.0 | 3.0 | 0.00 | 0.09 | 0.00 | 70 | 1011.0 |
| 20260505180805 | 58 | 22 | 1.0 | 3.0 | 0.00 | 0.09 | 0.00 | 69 | 1011.0 |
| 20260505175805 | 58 | 39 | 0.0 | 3.0 | 0.00 | 0.09 | 0.00 | 68 | 1011.0 |
| 20260505174806 | 58 | 22 | 1.0 | 3.0 | 0.00 | 0.09 | 0.00 | 67 | 1011.0 |
| 20260505164805 | 59 | 0 | 0.0 | 1.0 | 0.00 | 0.14 | 0.00 | 64 | 1011.0 |
| 20260505163805 | 59 | 22 | 0.0 | 2.0 | 0.00 | 0.15 | 0.00 | 64 | 1011.0 |
| 20260505162805 | 59 | 0 | 0.0 | 3.0 | 0.00 | 0.16 | 0.00 | 65 | 1011.0 |
| 20260505160806 | 59 | 0 | 1.0 | 2.0 | 0.00 | 0.18 | 0.00 | 65 | 1011.0 |
| 20260505124806 | 57 | 356 | 1.0 | 2.0 | 0.00 | 0.18 | 0.00 | 71 | 1012.0 |
| 20260505122805 | 58 | 49 | 0.0 | 3.0 | 0.00 | 0.18 | 0.00 | 69 | 1013.0 |
| 20260505121806 | 58 | 338 | 1.0 | 3.0 | 0.00 | 0.18 | 0.00 | 67 | 1013.0 |
| 20260505120805 | 58 | 45 | 1.0 | 5.0 | 0.00 | 0.18 | 0.00 | 68 | 1012.0 |
| 20260505115806 | 58 | 339 | 2.0 | 5.0 | 0.00 | 0.18 | 0.00 | 66 | 1012.0 |
| 20260505114805 | 58 | 17 | 1.0 | 6.0 | 0.00 | 0.18 | 0.00 | 64 | 1012.0 |
| 20260505113805 | 59 | 1 | 2.0 | 5.0 | 0.00 | 0.18 | 0.00 | 64 | 1013.0 |
| 20260505111805 | 60 | 2 | 2.0 | 5.0 | 0.00 | 0.18 | 0.00 | 65 | 1012.0 |
| 20260505110805 | 60 | 0 | 2.0 | 5.0 | 0.00 | 0.18 | 0.00 | 65 | 1011.0 |
| 20260505101805 | 59 | 358 | 2.0 | 5.0 | 0.00 | 0.18 | 0.00 | 70 | 1012.0 |
| 20260505100805 | 59 | 0 | 2.0 | 3.0 | 0.00 | 0.18 | 0.00 | 69 | 1012.0 |
| 20260505094805 | 58 | 16 | 0.0 | 5.0 | 0.00 | 0.18 | 0.00 | 73 | 1012.0 |
| 20260505092805 | 56 | 355 | 2.0 | 5.0 | 0.00 | 0.18 | 0.00 | 77 | 1012.0 |
| 20260505091805 | 58 | 0 | 1.0 | 3.0 | 0.00 | 0.18 | 0.00 | 72 | 1012.0 |
| 20260505085806 | 57 | 341 | 1.0 | 3.0 | 0.00 | 0.18 | 0.00 | 80 | 1013.0 |
| 20260505083805 | 57 | 334 | 2.0 | 5.0 | 0.00 | 0.18 | 0.00 | 81 | 1012.0 |
| 20260505082805 | 58 | 352 | 1.0 | 5.0 | 0.00 | 0.18 | 0.00 | 77 | 1013.0 |
| 20260505081805 | 57 | 8 | 0.0 | 5.0 | 0.00 | 0.18 | 0.00 | 80 | 1013.0 |
| 20260505075805 | 55 | 31 | 1.0 | 3.0 | 0.00 | 0.18 | 0.00 | 87 | 1012.0 |
| 20260505074805 | 55 | 0 | 0.0 | 3.0 | 0.00 | 0.18 | 0.00 | 91 | 1012.0 |
| 20260505073805 | 54 | 348 | 0.0 | 3.0 | 0.00 | 0.18 | 0.00 | 97 | 1012.0 |
| 20260505072805 | 52 | 0 | 1.0 | 2.0 | 0.00 | 0.18 | 0.00 | 98 | 1012.0 |
| 20260505065805 | 50 | 0 | 0.0 | 2.0 | 0.00 | 0.18 | 0.00 | 98 | 1013.0 |
| 20260505063805 | 50 | 0 | 0.0 | 2.0 | 0.00 | 0.18 | 0.00 | 98 | 1013.0 |
| 20260505062805 | 49 | 0 | 1.0 | 3.0 | 0.00 | 0.18 | 0.00 | 98 | 1013.0 |
| 20260505061805 | 49 | 0 | 0.0 | 3.0 | 0.00 | 0.18 | 0.00 | 98 | 1013.0 |
| 20260505055806 | 49 | 0 | 0.0 | 2.0 | 0.00 | 0.18 | 0.00 | 98 | 1013.0 |
| 20260505054805 | 49 | 0 | 0.0 | 2.0 | 0.00 | 0.18 | 0.00 | 98 | 1013.0 |
| 20260505053805 | 49 | 0 | 0.0 | 2.0 | 0.00 | 0.18 | 0.00 | 98 | 1013.0 |
| 20260505035805 | 50 | 45 | 0.0 | 1.0 | 0.00 | 0.18 | 0.00 | 98 | 1013.0 |
| 20260505032805 | 51 | 45 | 0.0 | 2.0 | 0.00 | 0.18 | 0.00 | 98 | 1013.0 |
| 20260505031805 | 51 | 45 | 0.0 | 0.0 | 0.00 | 0.18 | 0.00 | 98 | 1013.0 |
| 20260505030806 | 51 | 45 | 0.0 | 0.0 | 0.00 | 0.18 | 0.00 | 98 | 1013.0 |
| 20260505023805 | 52 | 26 | 0.0 | 2.0 | 0.00 | 0.18 | 0.00 | 98 | 1013.0 |
| 20260505022806 | 52 | 22 | 0.0 | 1.0 | 0.00 | 0.18 | 0.00 | 98 | 1013.0 |